Weather History for Forrest, WE

Change the Weather History Date:

Monday, March 25, 2013

  Actual Average Record
Temperature  
Mean Temperature 78 °F -  
Max Temperature 96 °F - - ()
Min Temperature 60 °F - - ()
Cooling Degree Days 13    
Growing Degree Days 28 (Base 50)    
Moisture  
Dew Point 55 °F    
Average Humidity 48    
Maximum Humidity 100    
Minimum Humidity 12    
Precipitation  
Precipitation 0.00 in - - ()
Sea Level Pressure  
Sea Level Pressure 29.84 in    
Wind  
Wind Speed 11 mph ()    
Max Wind Speed 21 mph    
Max Gust Speed 29 mph    
T = Trace of Precipitation, MM = Missing Value Source: Averaged Metar Reports

Daily Weather History Graph

Daily Weather History Graph

Search for Another Location

Airport:

Trip Planner

Search our weather history database for the weather conditions in past years. The results will help you decide how hot, cold, wet, or windy it might be!

Date:

Astronomy

Mar. 25, 2013 Rise Set
Actual Time 5:33 AM AWST 5:32 PM AWST
Civil Twilight 5:09 AM AWST 5:56 PM AWST
Nautical Twilight 4:41 AM AWST 6:24 PM AWST
Astronomical Twilight 4:13 AM AWST 6:52 PM AWST
Moon 4:00 PM AWST (3/25) 3:10 AM AWST (3/25)
Length of Visible Light 12h 46m
Length of Day
11h 58m
Waxing Gibbous, 94% of the Moon is Illuminated
Mar 25
Waxing Gibbous
Mar 27
Full
Apr 3
Last Quarter
Apr 10
New
Apr 18
First Quarter

Hourly Weather History & Observations

Time (AWST) Temp. Heat Index Dew Point Humidity Pressure Visibility Wind Dir Wind Speed Gust Speed Precip Events Conditions
12:00 AM 65 °F - 59 °F 75% 29.97 in - NE 5.8 mph - -  
12:00 AM 66.2 °F - 59.0 °F 78% 29.98 in - NE 5.8 mph - N/A   Unknown
1:00 AM 62.6 °F - 57.2 °F 82% 29.98 in - ENE 6.9 mph - N/A   Unknown
2:00 AM 62 °F - 58 °F 84% 29.95 in - East 9.2 mph - -  
2:00 AM 62.6 °F - 59.0 °F 88% 29.95 in - East 9.2 mph - N/A   Unknown
3:00 AM 62 °F - 62 °F 99% 29.95 in - ENE 8.1 mph - -  
3:00 AM 62.6 °F - 62.6 °F 100% 29.95 in - ENE 8.1 mph - N/A   Unknown
4:00 AM 60.8 °F - 60.8 °F 100% 29.95 in - ENE 8.1 mph - N/A   Unknown
5:00 AM 60 °F - 60 °F 100% 29.96 in - ENE 6.9 mph - -  
5:00 AM 60.8 °F - 60.8 °F 100% 29.98 in - ENE 6.9 mph - N/A   Unknown
6:00 AM 62 °F - 61 °F 97% 29.96 in - NE 9.2 mph - -  
6:00 AM 62.6 °F - 60.8 °F 94% 29.98 in - NE 9.2 mph - N/A   Unknown
7:00 AM 68.0 °F - 68.0 °F 100% 29.98 in - North 13.8 mph - N/A   Unknown
8:00 AM 76 °F - 60 °F 48% 29.96 in - North 20.7 mph - -  
8:00 AM 75.2 °F - 60.8 °F 61% 29.98 in - North 20.7 mph - N/A   Unknown
9:00 AM 82 °F - 61 °F 38% 29.95 in - North 18.4 mph - -  
9:00 AM 82.4 °F 82.9 °F 60.8 °F 48% 29.95 in - North 18.4 mph - N/A   Unknown
10:00 AM 86.0 °F 85.4 °F 59.0 °F 40% 29.92 in - North 18.4 mph - N/A   Unknown
11:00 AM 90 °F - 57 °F 23% 29.87 in - North 18.4 mph - -  
11:00 AM 89.6 °F 88.1 °F 57.2 °F 33% 29.89 in - North 18.4 mph - N/A   Unknown
12:00 PM 92 °F - 55 °F 19% 29.83 in - North 17.3 mph - -  
12:00 PM 91.4 °F 89.4 °F 55.4 °F 29% 29.83 in - North 17.3 mph 28.8 mph N/A   Unknown
1:00 PM 93.2 °F - 51.8 °F 24% 29.77 in - North 16.1 mph - N/A   Unknown
2:00 PM 95 °F - 49 °F 13% 29.74 in - North 15.0 mph - -  
2:00 PM 95.0 °F - 50.0 °F 22% 29.74 in - North 15.0 mph - N/A   Unknown
3:00 PM 95 °F - 49 °F 12% 29.72 in - North 13.8 mph - -  
3:00 PM 95.0 °F - 48.2 °F 20% 29.71 in - North 13.8 mph - N/A   Unknown
4:00 PM 95.0 °F - 48.2 °F 20% 29.71 in - North 16.1 mph - N/A   Unknown
5:00 PM 94 °F - 48 °F 13% 29.70 in - North 16.1 mph - -  
5:00 PM 95.0 °F - 48.2 °F 20% 29.71 in - North 16.1 mph - N/A   Unknown
6:00 PM 90 °F - 48 °F 15% 29.70 in - North 11.5 mph - -  
6:00 PM 89.6 °F - 48.2 °F 24% 29.71 in - North 11.5 mph - N/A   Unknown
7:00 PM 84.2 °F - 48.2 °F 29% 29.71 in - NNE 10.4 mph - N/A   Unknown
8:00 PM 83 °F - 48 °F 20% 29.71 in - NNE 11.5 mph - -  
8:00 PM 82.4 °F - 48.2 °F 30% 29.71 in - NNE 11.5 mph - N/A   Unknown
9:00 PM 83 °F - 49 °F 20% 29.69 in - NNE 16.1 mph - -  
9:00 PM 82.4 °F - 48.2 °F 30% 29.68 in - NNE 16.1 mph - N/A   Unknown
10:00 PM 84.2 °F - 48.2 °F 29% 29.68 in - NNE 17.3 mph - N/A   Unknown
11:00 PM 82 °F - 50 °F 22% 29.65 in - North 17.3 mph - -  
11:00 PM 82.4 °F - 50.0 °F 32% 29.65 in - North 17.3 mph - N/A   Unknown